Simultaneous Nadir Overpasses (SNOs) Predictions

Prediction of SNOs between NPP and TERRA Satellite Orbit:

Table of predicted SNOs for the next 14.0 days since TLE Epoch: 7/15/2024
Index Date (NPP) Time (NPP) Lat,Lon (NPP) SZA (NPP ) Date (TERRA) Time (TERRA) Lat,Lon (TERRA) SZA (TERRA ) Distance(km) Time Diff (sec)
1 07/15/2024 19:33:37 72.44,-121.02 51.27 07/15/2024 19:34:29 72.44,-120.93 51.24 2.98 52
2 07/15/2024 20:24:18 -72.31, 46.56 128.88 07/15/2024 20:23:53 -72.33, 46.54 128.85 2.16 25
3 07/18/2024 06:46:19 73.13, 69.42 52.45 07/18/2024 06:47:26 73.02, 71.83 52.19 79.06 67
4 07/18/2024 07:36:48 -72.39,-121.72 128.36 07/18/2024 07:37:00 -72.37,-121.71 128.39 2.32 12
5 07/18/2024 08:27:32 72.27, 45.83 51.52 07/18/2024 08:26:22 72.26, 45.76 51.53 2.50 70
6 07/20/2024
